When you browse on this site, cookies collect data to enhance your experience and personalize the content and advertising you see.
Visit our Privacy Policy to learn more. By continuing to use the site, you agree to this use of cookies and data.
  • In Sweden
  • List of Countries
  • For 7 days
  • Water Temperature
  • Weather Map
  • Weather Widgets
  • user-avatar
    Login

    Hourly Weather Strzemeszno

    Today, 17 October, Thursday

    Time Temperature Precipitation Wind Pressure Humidity
    00:00 +11°C° 0 mm 6 mps 752 mmHg 73%
    01:00 +12°C° 0 mm 5 mps 753 mmHg 69%
    02:00 +10°C° 0 mm 5 mps 753 mmHg 72%
    03:00 +10°C° 0 mm 5 mps 753 mmHg 74%
    04:00 +10°C° 0 mm 4 mps 753 mmHg 76%
    05:00 +10°C° 0 mm 4 mps 753 mmHg 78%
    06:00 +10°C° 0 mm 4 mps 753 mmHg 79%
    07:00 +10°C° 0 mm 3 mps 754 mmHg 78%
    08:00 +11°C° 0 mm 4 mps 754 mmHg 72%
    09:00 +13°C° 0 mm 4 mps 754 mmHg 66%
    10:00 +15°C° 0 mm 4 mps 754 mmHg 61%
    11:00 +17°C° 0 mm 4 mps 754 mmHg 58%
    12:00 +17°C° 0 mm 4 mps 754 mmHg 55%
    13:00 +18°C° 0 mm 4 mps 754 mmHg 53%
    14:00 +18°C° 0 mm 4 mps 754 mmHg 55%
    15:00 +17°C° 0 mm 3 mps 754 mmHg 57%
    16:00 +17°C° 0 mm 2 mps 754 mmHg 59%
    17:00 +16°C° 0 mm 2 mps 754 mmHg 61%
    18:00 +15°C° 0 mm 2 mps 754 mmHg 62%
    19:00 +15°C° 0 mm 2 mps 754 mmHg 64%
    20:00 +14°C° 0 mm 2 mps 754 mmHg 67%
    21:00 +14°C° 0 mm 2 mps 754 mmHg 70%
    22:00 +13°C° 0 mm 2 mps 754 mmHg 74%
    23:00 +13°C° 0 mm 2 mps 754 mmHg 76%

    Tomorrow, 18 October, Friday

    Time Temperature Precipitation Wind Pressure Humidity
    00:00 +13°C° 0 mm 2 mps 754 mmHg 78%
    01:00 +12°C° 0 mm 2 mps 754 mmHg 81%
    02:00 +12°C° 0 mm 2 mps 754 mmHg 82%
    03:00 +12°C° 0 mm 2 mps 754 mmHg 83%
    04:00 +10°C° 0 mm 2 mps 753 mmHg 84%
    05:00 +10°C° 0 mm 2 mps 753 mmHg 84%
    06:00 +12°C° 0 mm 2 mps 754 mmHg 83%
    07:00 +12°C° 0 mm 2 mps 754 mmHg 83%
    08:00 +13°C° 0 mm 2 mps 754 mmHg 77%
    09:00 +15°C° 0 mm 2 mps 753 mmHg 71%
    10:00 +16°C° 0 mm 3 mps 753 mmHg 65%
    11:00 +17°C° 0 mm 3 mps 753 mmHg 63%
    12:00 +18°C° 0 mm 3 mps 753 mmHg 61%
    13:00 +19°C° 0 mm 3 mps 752 mmHg 58%
    14:00 +18°C° 0 mm 2 mps 752 mmHg 61%
    15:00 +18°C° 0 mm 2 mps 752 mmHg 64%
    16:00 +18°C° 0 mm 1 mps 752 mmHg 67%
    17:00 +18°C° 0 mm 1 mps 752 mmHg 69%
    18:00 +16°C° 0 mm 1 mps 752 mmHg 70%
    19:00 +16°C° 0 mm 1 mps 752 mmHg 72%
    20:00 +15°C° 0 mm 2 mps 752 mmHg 73%
    21:00 +15°C° 0 mm 2 mps 752 mmHg 74%
    22:00 +15°C° 0 mm 2 mps 752 mmHg 74%
    23:00 +15°C° 0 mm 2 mps 752 mmHg 74%

    Day after tomorrow, 19 October, Saturday

    Time Temperature Precipitation Wind Pressure Humidity
    00:00 +15°C° 0 mm 2 mps 752 mmHg 73%
    01:00 +15°C° 0 mm 2 mps 752 mmHg 72%
    02:00 +14°C° 0 mm 2 mps 752 mmHg 73%
    03:00 +14°C° 0 mm 2 mps 752 mmHg 75%
    04:00 +14°C° 0 mm 2 mps 752 mmHg 77%
    05:00 +13°C° 0 mm 2 mps 752 mmHg 80%
    06:00 +13°C° 0 mm 2 mps 752 mmHg 83%
    07:00 +12°C° 0 mm 2 mps 752 mmHg 86%
    08:00 +14°C° 0 mm 2 mps 752 mmHg 81%
    09:00 +15°C° 0 mm 2 mps 752 mmHg 75%
    10:00 +18°C° 0 mm 1 mps 752 mmHg 69%
    11:00 +18°C° 0 mm 1 mps 752 mmHg 67%
    12:00 +19°C° 0 mm 1 mps 752 mmHg 65%
    13:00 +19°C° 0 mm 1 mps 752 mmHg 62%
    14:00 +19°C° 0 mm 1 mps 752 mmHg 65%
    15:00 +18°C° 0 mm 1 mps 752 mmHg 68%
    16:00 +16°C° 0 mm 0 mps 752 mmHg 71%
    17:00 +16°C° 0 mm 1 mps 752 mmHg 73%
    18:00 +16°C° 0 mm 1 mps 752 mmHg 74%
    19:00 +15°C° 0 mm 2 mps 752 mmHg 75%
    20:00 +15°C° 0 mm 2 mps 752 mmHg 76%
    21:00 +14°C° 0 mm 2 mps 751 mmHg 77%
    22:00 +14°C° 0 mm 2 mps 751 mmHg 78%
    23:00 +14°C° 0 mm 2 mps 751 mmHg 80%

    20 October, Sunday

    Time Temperature Precipitation Wind Pressure Humidity
    00:00 +14°C° 0 mm 2 mps 751 mmHg 81%
    01:00 +12°C° 0 mm 3 mps 751 mmHg 83%
    02:00 +13°C° 0 mm 2 mps 751 mmHg 83%
    03:00 +13°C° 0 mm 2 mps 751 mmHg 84%
    04:00 +13°C° 0 mm 2 mps 751 mmHg 84%
    05:00 +13°C° 0 mm 2 mps 752 mmHg 84%
    06:00 +13°C° 0 mm 2 mps 752 mmHg 84%
    07:00 +13°C° 0 mm 2 mps 752 mmHg 85%
    08:00 +14°C° 0 mm 2 mps 752 mmHg 79%
    09:00 +16°C° 0 mm 2 mps 752 mmHg 73%
    10:00 +17°C° 0 mm 2 mps 753 mmHg 67%
    11:00 +18°C° 0 mm 2 mps 752 mmHg 63%
    12:00 +19°C° 0 mm 2 mps 752 mmHg 59%
    13:00 +21°C° 0 mm 1 mps 752 mmHg 55%
    14:00 +20°C° 0 mm 1 mps 752 mmHg 59%
    15:00 +20°C° 0 mm 1 mps 752 mmHg 62%
    16:00 +19°C° 0 mm 1 mps 752 mmHg 65%
    17:00 +18°C° 0 mm 1 mps 752 mmHg 68%
    18:00 +16°C° 0 mm 1 mps 752 mmHg 71%
    19:00 +16°C° 0 mm 2 mps 752 mmHg 74%
    20:00 +15°C° 0 mm 2 mps 752 mmHg 76%
    21:00 +15°C° 0 mm 2 mps 752 mmHg 77%
    22:00 +15°C° 0 mm 2 mps 752 mmHg 78%
    23:00 +15°C° 0 mm 2 mps 752 mmHg 78%

    21 October, Monday

    Time Temperature Precipitation Wind Pressure Humidity
    00:00 +15°C° 0 mm 2 mps 752 mmHg 77%
    01:00 +14°C° 0 mm 3 mps 751 mmHg 77%
    02:00 +15°C° 0 mm 2 mps 751 mmHg 77%
    03:00 +15°C° 0 mm 2 mps 751 mmHg 78%
    04:00 +15°C° 0 mm 2 mps 751 mmHg 79%
    05:00 +14°C° 0 mm 2 mps 751 mmHg 80%
    06:00 +14°C° 0 mm 2 mps 751 mmHg 81%
    07:00 +14°C° 0 mm 2 mps 751 mmHg 82%
    08:00 +16°C° 0 mm 2 mps 751 mmHg 76%
    09:00 +17°C° 0 mm 2 mps 751 mmHg 69%
    10:00 +19°C° 0 mm 3 mps 751 mmHg 63%
    11:00 +19°C° 0 mm 3 mps 751 mmHg 62%
    12:00 +20°C° 0 mm 3 mps 751 mmHg 62%
    13:00 +20°C° 0 mm 3 mps 752 mmHg 61%
    14:00 +20°C° 0 mm 3 mps 752 mmHg 65%
    15:00 +19°C° 0 mm 3 mps 752 mmHg 70%
    16:00 +18°C° 0 mm 2 mps 752 mmHg 74%
    17:00 +17°C° 0 mm 3 mps 752 mmHg 78%
    18:00 +16°C° 0 mm 3 mps 753 mmHg 81%
    19:00 +15°C° 0 mm 4 mps 753 mmHg 84%
    20:00 +14°C° 0 mm 4 mps 754 mmHg 86%
    21:00 +14°C° 0 mm 4 mps 754 mmHg 88%
    22:00 +13°C° 0 mm 4 mps 754 mmHg 90%
    23:00 +13°C° 0 mm 4 mps 755 mmHg 91%

    22 October, Tuesday

    Time Temperature Precipitation Wind Pressure Humidity
    00:00 +12°C° 0 mm 4 mps 755 mmHg 91%
    01:00 +12°C° 0 mm 4 mps 756 mmHg 92%
    02:00 +12°C° 0 mm 4 mps 756 mmHg 92%
    03:00 +11°C° 0 mm 4 mps 757 mmHg 93%
    04:00 +11°C° 0 mm 4 mps 757 mmHg 93%
    05:00 +10°C° 0 mm 4 mps 758 mmHg 93%
    06:00 +10°C° 0 mm 3 mps 758 mmHg 92%
    07:00 +10°C° 0 mm 3 mps 759 mmHg 92%
    08:00 +11°C° 0 mm 3 mps 759 mmHg 86%
    09:00 +12°C° 0 mm 4 mps 759 mmHg 80%
    10:00 +13°C° 0 mm 4 mps 760 mmHg 75%
    11:00 +14°C° 0 mm 4 mps 760 mmHg 70%
    12:00 +15°C° 0 mm 4 mps 760 mmHg 65%
    13:00 +15°C° 0 mm 4 mps 760 mmHg 61%
    14:00 +14°C° 0 mm 3 mps 760 mmHg 62%
    15:00 +15°C° 0 mm 2 mps 760 mmHg 64%
    16:00 +14°C° 0 mm 2 mps 760 mmHg 66%
    17:00 +13°C° 0 mm 2 mps 760 mmHg 69%
    18:00 +12°C° 0 mm 1 mps 761 mmHg 73%
    19:00 +11°C° 0 mm 1 mps 761 mmHg 76%
    20:00 +11°C° 0 mm 1 mps 761 mmHg 78%
    21:00 +11°C° 0 mm 1 mps 761 mmHg 80%
    22:00 +10°C° 0 mm 1 mps 761 mmHg 82%
    23:00 +10°C° 0 mm 1 mps 761 mmHg 84%
    Show more